Frankfort, MI

7:04 PM EDT on September 25, 2017 (GMT -0400)
Frankfort

Weather History for KFKS - August, 2014

Change the Weather History Date:

Wednesday, August 13, 2014

  Actual Average (KMBL) Record (KMBL)
Temperature  
Mean Temperature 59 °F -  
Max Temperature 72 °F 78 °F 94 °F (1988)
Min Temperature 46 °F 57 °F 43 °F (1992)
Degree Days  
Heating Degree Days 6    
Growing Degree Days 9 (Base 50)    
Moisture  
Dew Point 49 °F    
Average Humidity 68    
Maximum Humidity 91    
Minimum Humidity 36    
Precipitation  
Precipitation 0.00 in - - ()
Sea Level Pressure  
Sea Level Pressure 29.97 in    
Wind  
Wind Speed 2 mph (North)    
Max Wind Speed 10 mph    
Max Gust Speed 16 mph    
Visibility 9 miles    
Events Fog    
Averages and records for this station are not official NWS values.
T = Trace of Precipitation, MM = Missing Value Source: NWS Daily Summary

Daily Weather History Graph

Daily Weather History Graph

Search for Another Location

Airport or City:

Trip Planner

Search our weather history database for the weather conditions in past years. The results will help you decide how hot, cold, wet, or windy it might be!

Date:

Astronomy

Aug. 13, 2014 Rise Set
Actual Time 6:44 AM EDT 8:53 PM EDT
Civil Twilight 6:13 AM EDT 9:25 PM EDT
Nautical Twilight 5:33 AM EDT 10:04 PM EDT
Astronomical Twilight 4:49 AM EDT 10:47 PM EDT
Moon 10:26 PM EDT (8/13) 10:22 AM EDT (8/13)
Length of Visible Light 15h 12m
Length of Day
14h 08m
Waning Gibbous, 88% of the Moon is Illuminated
Aug 13
Waning Gibbous
Aug 17
Last Quarter
Aug 25
New
Sep 2
First Quarter
Sep 8
Full

Hourly Weather History & Observations

Time (EDT) Temp. Dew Point Humidity Pressure Visibility Wind Dir Wind Speed Gust Speed Precip Events Conditions
12:12 AM 53.8 °F 50.7 °F 89% 29.91 in 10.0 mi Calm Calm - N/A   Overcast
12:32 AM 54.7 °F 51.1 °F 88% 29.91 in 10.0 mi Calm Calm - N/A   Mostly Cloudy
12:53 AM 53.6 °F 50.2 °F 88% 29.91 in 10.0 mi Calm Calm - N/A   Clear
1:13 AM 52.7 °F 49.3 °F 88% 29.91 in 2.5 mi Calm Calm - N/A   Clear
1:34 AM 52.0 °F 49.3 °F 90% 29.91 in 10.0 mi Calm Calm - N/A   Clear
1:54 AM 50.5 °F 48.0 °F 91% 29.91 in 10.0 mi Calm Calm - N/A   Clear
2:15 AM 50.4 °F 47.7 °F 90% 29.91 in 7.0 mi Calm Calm - N/A   Clear
2:35 AM 50.0 °F 47.3 °F 90% 29.91 in 7.0 mi Calm Calm - N/A   Clear
2:55 AM 48.9 °F 46.2 °F 90% 29.91 in 2.5 mi Calm Calm - N/A   Clear
3:16 AM 49.6 °F 46.9 °F 90% 29.91 in 4.0 mi Calm Calm - N/A   Clear
3:36 AM 48.2 °F 45.3 °F 90% 29.91 in 2.0 mi Calm Calm - N/A   Clear
3:52 AM 48.2 °F 45.3 °F 90% 29.90 in 10.0 mi Calm Calm - N/A   Clear
4:12 AM 47.8 °F 44.8 °F 89% 29.90 in 10.0 mi Calm Calm - N/A   Clear
4:32 AM 47.5 °F 44.2 °F 89% 29.90 in 10.0 mi Calm Calm - N/A   Clear
4:53 AM 47.3 °F 44.2 °F 89% 29.91 in 7.0 mi Calm Calm - N/A   Clear
5:13 AM 47.5 °F 44.6 °F 90% 29.91 in 7.0 mi Calm Calm - N/A   Clear
5:34 AM 47.5 °F 44.4 °F 89% 29.91 in 7.0 mi Calm Calm - N/A   Clear
5:55 AM 48.2 °F 44.6 °F 87% 29.91 in 10.0 mi Calm Calm - N/A   Clear
6:15 AM 47.7 °F 43.9 °F 87% 29.92 in 10.0 mi Calm Calm - N/A   Clear
6:36 AM 46.4 °F 43.7 °F 90% 29.93 in 7.0 mi Calm Calm - N/A   Scattered Clouds
6:56 AM 47.3 °F 44.1 °F 88% 29.93 in 0.2 mi Calm Calm - N/A Fog Fog
7:11 AM 46.4 °F 43.7 °F 90% 29.94 in 0.2 mi Calm Calm - N/A Fog Fog
7:32 AM 47.3 °F 44.4 °F 90% 29.94 in 0.8 mi Calm Calm - N/A   Mist
8:33 AM 55.6 °F 52.9 °F 91% 29.95 in 10.0 mi Calm Calm - N/A   Clear
8:53 AM 59.2 °F 56.3 °F 90% 29.96 in 10.0 mi Calm Calm - N/A   Clear
9:33 AM 64.9 °F 55.4 °F 71% 29.97 in 10.0 mi NNW 5.8 mph - N/A   Clear
9:53 AM 65.5 °F 54.3 °F 67% 29.97 in 10.0 mi North 5.8 mph - N/A   Clear
10:34 AM 66.9 °F 54.7 °F 65% 29.98 in 10.0 mi North 4.6 mph - N/A   Clear
11:14 AM 68.0 °F 54.0 °F 61% 30.00 in 10.0 mi NNW 6.9 mph - N/A   Clear
11:34 AM 68.0 °F 54.3 °F 62% 30.00 in 10.0 mi North 5.8 mph - N/A   Clear
11:54 AM 68.5 °F 54.3 °F 60% 30.00 in 10.0 mi NNW 3.5 mph - N/A   Clear
12:15 PM 69.6 °F 52.0 °F 53% 30.00 in 10.0 mi North 5.8 mph - N/A   Clear
12:35 PM 70.2 °F 52.5 °F 53% 30.00 in 10.0 mi North 5.8 mph - N/A   Clear
12:55 PM 70.5 °F 50.0 °F 48% 30.00 in 10.0 mi NNW 5.8 mph - N/A   Clear
1:15 PM 70.7 °F 49.5 °F 47% 30.00 in 10.0 mi NNW 6.9 mph - N/A   Clear
1:35 PM 71.2 °F 48.2 °F 44% 30.00 in 10.0 mi NNW 5.8 mph - N/A   Clear
1:55 PM 70.7 °F 46.0 °F 41% 30.00 in 10.0 mi NNW 9.2 mph - N/A   Clear
2:15 PM 70.7 °F 44.6 °F 39% 30.00 in 10.0 mi North 6.9 mph - N/A   Clear
2:35 PM 71.6 °F 44.4 °F 38% 30.01 in 10.0 mi NNW 9.2 mph - N/A   Clear
2:55 PM 71.6 °F 43.3 °F 36% 30.01 in 10.0 mi North 9.2 mph - N/A   Clear
3:16 PM 71.6 °F 46.0 °F 40% 30.01 in 10.0 mi NW 5.8 mph - N/A   Clear
3:36 PM 71.8 °F 46.9 °F 41% 30.01 in 10.0 mi NNW 8.1 mph - N/A   Clear
3:56 PM 71.4 °F 46.0 °F 40% 30.01 in 10.0 mi NW 5.8 mph - N/A   Clear
4:11 PM 71.6 °F 47.7 °F 43% 30.01 in 10.0 mi NNW 5.8 mph - N/A   Clear
4:33 PM 71.2 °F 47.8 °F 43% 30.01 in 10.0 mi North 6.9 mph - N/A   Clear
4:53 PM 72.1 °F 47.8 °F 42% 30.01 in 10.0 mi North 5.8 mph - N/A   Clear
5:13 PM 72.3 °F 48.6 °F 43% 30.01 in 10.0 mi North 4.6 mph - N/A   Clear
5:33 PM 71.2 °F 48.6 °F 45% 30.01 in 10.0 mi North 5.8 mph - N/A   Scattered Clouds
5:53 PM 70.9 °F 48.9 °F 46% 30.02 in 10.0 mi NNW 8.1 mph - N/A   Mostly Cloudy
6:13 PM 69.3 °F 50.0 °F 50% 30.02 in 10.0 mi North 8.1 mph - N/A   Scattered Clouds
6:33 PM 69.6 °F 51.6 °F 53% 30.02 in 10.0 mi NNW 8.1 mph - N/A   Mostly Cloudy
6:53 PM 68.4 °F 52.7 °F 57% 30.02 in 10.0 mi NNW 9.2 mph - N/A   Scattered Clouds
7:14 PM 66.2 °F 54.1 °F 65% 30.03 in 10.0 mi North 10.4 mph - N/A   Mostly Cloudy
7:29 PM 65.1 °F 53.4 °F 66% 30.03 in 10.0 mi North 6.9 mph - N/A   Mostly Cloudy
7:52 PM 64.2 °F 52.3 °F 65% 30.04 in 10.0 mi North 5.8 mph 16.1 mph N/A   Scattered Clouds
8:12 PM 63.5 °F 52.3 °F 67% 30.04 in 10.0 mi North 6.9 mph - N/A   Scattered Clouds
8:53 PM 62.6 °F 51.1 °F 66% 30.05 in 10.0 mi North 6.9 mph - N/A   Mostly Cloudy